Wind_Speed
46 47 48 49 50 50 50 50 52 53 54 55 56 56 57 57 58 58 59 59 59 59 59 59 59 59 59 59 59 59 59 60 60 57 57 56 57 57 57 58 57 57 57
46 47 48 48 49 50 51 51 52 53 54 55 55 55 56 57 58 59 59 59 59 59 59 60 60 60 59 59 59 59 59 60 60 59 58 58 57 57 57 58 58 58 58
47 48 48 49 49 50 50 51 53 53 54 55 55 55 56 57 57 57 58 59 59 59 59 60 61 60 60 60 59 59 59 60 60 60 59 58 58 58 59 59 59 59 59
47 48 48 48 49 50 50 51 52 53 54 55 55 55 56 56 56 56 57 58 59 59 59 59 60 60 60 60 60 59 59 60 60 59 59 60 60 60 60 60 61 60 60
46 47 48 48 49 50 51 51 52 53 53 54 54 54 55 55 55 55 55 56 57 58 58 58 58 59 60 61 60 60 60 60 60 60 60 60 60 61 62 62 63 63 62
46 47 47 48 49 50 50 51 52 53 53 54 54 54 53 54 55 56 56 56 57 57 58 58 58 58 59 60 60 60 60 61 61 62 62 62 61 62 62 62 63 63 63
46 47 47 47 48 49 49 50 51 52 53 53 53 54 54 54 55 56 56 57 56 57 58 58 58 58 60 60 60 60 61 61 61 62 62 63 63 63 64 63 63 63 62
45 45 46 46 47 47 48 49 50 51 52 52 53 54 54 53 54 54 56 57 56 57 58 58 58 59 60 60 61 61 61 61 62 63 63 63 63 63 64 64 64 64 63
45 46 46 46 46 47 48 48 49 50 52 52 52 52 53 54 55 54 55 56 56 56 57 59 59 60 60 61 61 61 61 61 62 62 62 62 62 62 63 64 64 65 64
45 46 46 46 46 47 48 48 49 49 51 52 52 52 52 53 54 55 55 56 56 56 57 57 58 59 60 62 62 61 61 61 62 62 62 61 61 62 62 63 63 64 64
46 46 46 46 46 47 47 48 48 49 50 51 52 52 51 52 53 55 55 55 56 56 57 57 57 57 58 60 61 62 62 62 61 61 61 61 61 61 61 62 62 63 63
46 46 47 47 47 47 48 48 48 48 49 50 51 51 51 51 52 53 54 54 55 56 57 57 57 58 58 59 59 60 60 61 61 61 60 60 60 60 60 61 61 61 61
47 47 47 47 47 47 47 48 48 49 49 50 51 51 52 51 51 52 52 53 54 55 55 56 57 57 58 58 58 58 58 59 59 60 60 59 59 60 60 60 60 60 60
47 47 47 47 47 48 48 48 49 49 50 50 51 51 52 52 52 51 52 53 54 54 55 55 56 56 56 57 56 56 57 57 58 58 59 59 59 59 59 60 60 59 59
47 47 47 47 47 48 48 48 49 49 49 50 50 51 52 53 53 53 53 53 53 54 54 55 55 54 54 55 55 55 55 55 56 57 57 57 57 58 58 59 59 59 59
46 46 46 46 46 47 47 48 48 48 49 50 50 51 52 52 53 54 54 54 53 53 53 53 52 52 53 53 53 53 53 53 54 55 55 55 55 55 55 56 57 56 56
43 43 44 45 45 46 46 47 47 47 48 49 49 50 50 51 52 52 53 53 52 51 51 50 50 50 50 51 52 52 52 52 52 52 53 53 54 53 53 53 54 54 54
42 43 43 43 44 44 45 46 46 47 47 48 48 48 48 49 49 50 50 50 50 49 49 49 48 48 48 49 49 49 50 50 51 51 51 51 51 51 51 51 51 51 52
42 42 43 43 43 44 44 45 45 46 46 46 46 46 46 47 47 47 47 48 48 48 48 48 47 47 47 47 47 48 48 48 49 49 49 49 49 49 49 49 49 49 49
42 42 43 43 44 44 44 44 44 44 44 44 44 44 44 45 45 45 45 45 46 46 46 46 46 46 46 46 46 47 47 48 48 48 47 47 47 47 47 47 47 47 47
42 42 43 43 43 43 43 43 43 43 42 42 42 43 43 43 43 43 43 43 43 43 43 44 45 45 46 46 45 46 46 46 46 46 46 46 45 45 45 45 45 45 45
43 43 43 43 42 42 42 42 41 41 41 41 41 41 41 41 41 41 41 41 41 41 42 42 43 43 43 44 44 44 44 44 45 44 44 44 44 44 44 44 44 43 43
43 43 42 42 42 41 41 40 40 40 40 40 40 40 40 40 40 40 40 40 41 41 41 41 42 42 42 43 43 43 43 43 43 43 43 42 42 41 41 41 41 41 41
42 41 40 40 40 40 41 40 40 40 40 40 40 40 40 40 40 40 40 41 41 42 42 42 42 42 41 41 41 41 41 41 41 41 41 41 40 40 39 39 39 39 39
40 40 39 39 39 40 40 40 40 40 40 40 40 39 39 39 40 40 41 41 41 42 42 42 41 41 40 40 40 39 39 39 38 39 39 39 38 37 38 38 38 38 37
40 39 39 39 39 40 39 39 39 39 39 39 39 39 40 40 40 40 40 40 40 40 40 40 40 39 39 38 38 38 37 36 36 36 36 36 36 35 36 35 35 35 35
Wind_Direction
266 266 265 265 265 264 263 263 263 263 262 262 262 262 261 261 261 261 260 260 261 262 262 263 263 264 264 263 264 264 263 262 261 260 260 260 261 262 263 262 261 260 261
268 267 267 266 266 265 265 265 264 263 263 263 261 261 261 261 262 261 262 261 262 262 262 262 262 263 263 263 264 264 263 263 262 261 261 261 261 262 263 263 263 263 262
270 269 268 267 266 265 266 266 265 264 264 263 261 261 262 262 262 262 262 262 262 262 262 262 261 261 262 262 263 263 263 263 263 262 261 262 262 262 263 263 263 263 264
271 271 269 268 266 265 265 266 266 266 265 264 263 262 263 262 262 262 262 262 262 261 261 262 262 262 262 262 263 263 263 263 263 263 262 262 262 263 263 263 263 263 264
273 272 270 269 268 267 266 266 266 266 266 265 264 263 263 262 262 262 262 263 262 262 262 262 262 262 263 264 264 264 264 264 263 263 264 264 264 263 263 263 263 264 264
273 272 271 269 268 268 267 267 267 266 266 265 264 263 263 263 262 262 263 263 262 262 262 262 263 263 264 264 263 264 264 264 264 263 264 265 265 264 264 264 264 264 264
273 272 271 270 269 269 268 268 267 266 266 266 265 264 264 265 264 264 263 263 263 262 262 262 262 263 264 264 264 264 264 265 264 264 265 265 265 265 264 264 264 264 264
273 272 271 271 271 270 270 270 269 268 267 266 265 264 265 265 266 265 264 263 263 263 262 261 262 262 263 264 264 265 264 264 265 265 265 266 266 265 265 265 265 265 264
274 273 272 272 272 272 272 272 271 270 268 266 265 265 265 265 265 266 265 264 264 264 264 263 263 263 263 264 264 264 264 264 265 265 266 266 266 266 266 266 265 265 264
275 274 273 273 274 274 274 273 272 271 270 268 267 267 266 266 265 266 266 266 265 265 264 264 264 263 264 264 264 264 264 265 265 265 265 265 265 266 266 266 266 265 265
276 275 274 273 274 274 274 274 273 272 271 269 268 268 268 267 266 266 265 265 265 265 264 264 264 264 264 265 266 265 266 265 265 265 264 264 265 265 266 266 266 266 266
277 276 275 274 274 274 274 275 275 274 272 271 270 269 268 268 267 266 266 266 266 265 265 265 265 265 265 266 267 267 266 265 265 264 264 265 265 266 266 266 267 267 266
277 277 275 275 275 274 274 275 275 275 274 273 271 270 269 268 267 266 266 266 266 266 266 266 266 266 266 267 267 266 266 265 265 265 265 265 265 266 266 266 266 267 266
278 277 275 274 274 274 275 275 276 276 275 274 273 271 269 268 268 268 268 267 267 267 267 267 267 267 266 266 266 266 266 266 266 266 266 266 266 265 266 267 267 266 266
278 277 275 274 274 274 275 276 276 276 276 276 275 274 272 270 269 269 269 269 268 268 269 269 268 266 266 266 266 265 265 265 266 266 266 266 265 266 266 267 266 266 266
278 277 275 275 275 275 276 277 277 277 277 278 277 276 275 273 271 270 270 270 269 270 269 268 267 266 266 265 266 266 265 265 266 266 266 266 266 266 266 266 265 265 265
280 278 277 276 276 276 276 277 277 278 278 278 278 278 276 275 273 272 271 270 269 270 269 268 267 266 266 266 266 267 266 266 266 266 266 266 266 265 265 265 265 264 264
281 279 278 278 278 278 278 278 278 278 279 278 278 278 277 276 274 273 272 270 269 269 268 268 267 267 266 266 267 267 267 267 267 267 267 266 265 265 265 265 265 264 264
283 280 279 279 279 279 279 279 279 279 279 279 278 278 277 276 275 274 273 271 270 269 269 268 267 267 267 266 267 267 267 267 267 267 267 266 265 265 265 264 264 263 262
284 282 281 280 280 280 280 280 280 280 280 280 279 278 277 276 275 274 273 272 270 270 269 268 268 268 268 268 268 268 267 267 267 268 267 267 265 265 264 263 262 262 262
285 284 283 282 281 281 281 281 281 282 281 280 279 278 277 276 275 275 274 272 271 270 270 269 269 269 269 269 269 268 268 267 267 266 266 266 265 264 263 263 262 263 263
287 285 284 283 282 282 282 282 282 282 282 281 280 279 278 276 275 274 273 272 271 271 271 270 270 270 269 269 268 268 267 266 266 265 265 265 264 263 263 263 263 263 263
287 286 285 284 282 282 282 282 282 282 281 281 280 280 278 277 275 273 272 271 270 270 271 272 271 270 269 269 268 267 266 265 265 265 265 264 263 263 263 263 263 262 262
287 286 284 284 283 283 283 283 283 282 282 281 281 280 279 277 275 273 272 271 271 271 271 272 271 271 270 269 269 267 266 264 264 263 263 263 263 263 262 262 262 262 262
288 286 285 284 283 283 283 283 283 283 282 281 281 280 279 277 275 274 273 272 272 271 271 271 271 271 269 268 267 266 265 264 263 263 262 262 262 262 262 262 262 262 262
288 286 285 284 283 283 282 282 282 282 282 281 280 279 278 277 276 275 274 273 273 272 271 270 270 269 269 268 266 264 263 262 262 262 262 262 261 261 262 261 261 262 262
Height
5587 5587 5587 5587 5588 5588 5589 5589 5590 5591 5591 5592 5593 5595 5596 5597 5599 5601 5602 5604 5605 5607 5608 5609 5611 5612 5613 5615 5616 5618 5620 5622 5624 5627 5629 5630 5631 5633 5634 5636 5638 5640 5642
5574 5574 5574 5574 5574 5575 5575 5575 5576 5576 5577 5577 5578 5579 5581 5582 5583 5585 5586 5587 5589 5590 5592 5593 5595 5596 5597 5598 5600 5601 5603 5605 5607 5610 5612 5614 5615 5617 5618 5620 5622 5624 5626
5561 5560 5560 5560 5560 5560 5561 5561 5561 5562 5562 5562 5563 5564 5565 5567 5568 5569 5570 5571 5573 5574 5575 5577 5578 5580 5581 5582 5584 5585 5587 5588 5590 5592 5595 5596 5598 5600 5602 5603 5605 5607 5609
5547 5546 5546 5546 5546 5546 5546 5546 5546 5546 5547 5547 5548 5549 5550 5551 5552 5553 5554 5555 5556 5558 5559 5560 5562 5563 5565 5566 5567 5569 5570 5571 5573 5575 5577 5579 5581 5582 5584 5586 5588 5590 5592
5533 5533 5532 5532 5532 5532 5532 5532 5531 5531 5531 5532 5533 5533 5534 5535 5536 5537 5538 5539 5540 5542 5543 5544 5546 5547 5549 5550 5551 5552 5553 5554 5556 5557 5559 5561 5563 5564 5566 5567 5570 5571 5573
5519 5519 5518 5517 5517 5517 5517 5517 5516 5516 5516 5517 5517 5518 5518 5519 5520 5521 5522 5523 5524 5525 5527 5528 5529 5531 5532 5533 5534 5535 5536 5538 5539 5540 5542 5544 5545 5546 5547 5548 5550 5552 5555
5505 5505 5504 5504 5503 5502 5502 5502 5501 5501 5501 5502 5502 5503 5503 5504 5504 5505 5505 5507 5508 5509 5510 5511 5513 5514 5514 5515 5516 5518 5519 5520 5521 5523 5524 5526 5527 5528 5529 5530 5531 5532 5535
5492 5491 5490 5490 5489 5488 5488 5487 5487 5486 5486 5487 5487 5487 5488 5488 5488 5489 5489 5490 5491 5492 5493 5494 5495 5496 5497 5498 5499 5500 5501 5503 5503 5505 5506 5507 5507 5508 5509 5510 5511 5513 5516
5478 5477 5477 5476 5476 5475 5474 5473 5472 5472 5471 5472 5472 5472 5472 5472 5472 5472 5473 5473 5475 5476 5477 5477 5478 5479 5479 5480 5481 5483 5484 5485 5485 5486 5487 5488 5489 5489 5489 5490 5492 5493 5496
5465 5464 5463 5462 5461 5461 5460 5459 5458 5457 5456 5456 5456 5456 5456 5456 5456 5456 5456 5457 5459 5460 5460 5460 5461 5461 5461 5460 5462 5464 5466 5467 5467 5468 5469 5470 5471 5471 5471 5471 5472 5474 5476
5451 5450 5449 5448 5447 5446 5445 5444 5443 5442 5441 5441 5441 5441 5440 5440 5440 5439 5439 5440 5441 5442 5442 5443 5443 5443 5443 5443 5444 5446 5447 5448 5449 5450 5451 5452 5453 5453 5453 5453 5454 5455 5457
5437 5436 5434 5433 5433 5432 5431 5429 5428 5427 5426 5425 5425 5424 5424 5423 5423 5422 5422 5422 5423 5424 5425 5425 5425 5425 5425 5426 5426 5427 5428 5429 5430 5431 5433 5434 5435 5435 5436 5436 5436 5437 5438
5422 5421 5420 5419 5418 5417 5416 5414 5413 5411 5410 5409 5408 5408 5408 5407 5406 5406 5405 5405 5406 5407 5407 5408 5408 5408 5408 5408 5409 5409 5409 5410 5412 5413 5415 5416 5417 5417 5418 5418 5419 5420 5421
5407 5406 5404 5403 5402 5401 5400 5399 5398 5396 5394 5393 5392 5392 5391 5390 5390 5389 5389 5389 5389 5389 5390 5390 5391 5391 5391 5391 5391 5391 5392 5393 5393 5395 5396 5397 5398 5399 5399 5400 5401 5402 5404
5393 5391 5389 5388 5387 5386 5385 5384 5382 5381 5379 5378 5377 5376 5376 5375 5374 5373 5372 5372 5372 5372 5372 5373 5373 5373 5374 5374 5374 5374 5375 5375 5376 5377 5378 5379 5380 5381 5382 5382 5383 5384 5386
5378 5376 5374 5373 5372 5371 5370 5369 5366 5365 5364 5362 5361 5360 5359 5358 5357 5356 5355 5355 5354 5355 5355 5355 5356 5356 5356 5357 5357 5357 5358 5359 5359 5359 5360 5361 5362 5363 5364 5365 5366 5367 5369
5363 5361 5360 5359 5358 5356 5355 5354 5352 5351 5348 5347 5345 5343 5342 5341 5340 5340 5339 5338 5337 5337 5338 5338 5339 5339 5339 5340 5340 5341 5341 5342 5342 5342 5343 5344 5345 5346 5347 5348 5349 5350 5352
5349 5347 5346 5344 5343 5341 5340 5338 5337 5336 5334 5332 5329 5327 5326 5325 5324 5323 5323 5322 5322 5322 5322 5322 5323 5323 5324 5324 5324 5325 5325 5326 5326 5326 5327 5328 5328 5330 5331 5332 5333 5334 5336
5336 5333 5332 5330 5328 5327 5325 5323 5322 5320 5318 5316 5315 5313 5311 5310 5309 5308 5307 5307 5308 5307 5307 5307 5308 5308 5308 5309 5309 5309 5309 5310 5310 5311 5311 5312 5312 5313 5315 5316 5317 5318 5320
5322 5320 5318 5316 5314 5312 5310 5308 5307 5305 5303 5301 5300 5298 5297 5296 5295 5294 5293 5293 5293 5293 5292 5293 5293 5293 5293 5293 5294 5294 5294 5295 5295 5296 5296 5297 5297 5298 5299 5301 5302 5303 5305
5309 5306 5304 5302 5300 5298 5296 5294 5292 5291 5289 5287 5285 5283 5282 5281 5280 5280 5279 5279 5278 5278 5278 5278 5278 5278 5278 5279 5279 5279 5279 5280 5280 5281 5281 5282 5283 5284 5285 5286 5287 5289 5290
5296 5293 5290 5288 5286 5284 5282 5280 5279 5277 5275 5273 5271 5270 5268 5267 5267 5266 5266 5265 5265 5265 5264 5264 5264 5264 5264 5264 5264 5265 5265 5265 5266 5266 5267 5268 5269 5270 5271 5272 5273 5275 5276
5282 5279 5277 5274 5272 5271 5269 5267 5265 5263 5262 5260 5258 5257 5255 5254 5253 5253 5252 5252 5251 5251 5251 5250 5250 5250 5250 5250 5250 5250 5251 5251 5252 5252 5254 5254 5255 5257 5258 5259 5260 5261 5262
5269 5266 5263 5261 5259 5257 5256 5254 5252 5250 5248 5247 5245 5243 5242 5241 5240 5239 5238 5238 5238 5237 5237 5236 5236 5236 5236 5236 5236 5236 5237 5237 5238 5239 5240 5241 5243 5244 5245 5246 5247 5249 5250
5255 5253 5250 5248 5246 5244 5242 5240 5238 5237 5235 5233 5232 5230 5229 5227 5226 5225 5225 5224 5224 5223 5223 5222 5222 5222 5222 5222 5222 5223 5223 5224 5225 5226 5227 5229 5230 5232 5233 5234 5236 5237 5238
5242 5240 5237 5235 5233 5231 5229 5227 5225 5223 5222 5220 5218 5217 5215 5214 5213 5212 5211 5210 5210 5209 5209 5209 5208 5208 5208 5209 5209 5210 5210 5211 5212 5214 5215 5217 5218 5220 5221 5222 5224 5225 5227